Location: Charbonni�res
(45.9952°N, 2.9982°E)
Time: 18:07:46
(UTC+00:00)

DMSP B5D1-3 - Pass Details

Date: 29 November 2020
Orbit: 766 x 781 km, 98.5° (Epoch: 17 January)

Event Time Altitude Azimuth Distance (km) Brightness Sun altitude
Rises 05:46:09 0° 170° (S) 3,246 8.1 -13.7°
Reaches altitude 10° 05:48:27 10° 172° (S) 2,324 7.3 -13.3°
Maximum altitude 05:53:34 72° 257° (WSW) 822 4.5 -12.5°
Drops below altitude 10° 05:58:45 10° 342° (NNW) 2,347 6.7 -11.6°
Sets 06:01:06 0° 345° (NNW) 3,279 7.4 -11.2°
